Prairie Du Chien, WI

11:34 AM CDT on September 27, 2016 (GMT -0500)
Prairie Du Chien Municipal

Weather History for KPDC - November, 2015

Change the Weather History Date:

Friday, November 20, 2015

  Actual Average Record
Temperature  
Mean Temperature 32 °F -  
Max Temperature 35 °F 45 °F 66 °F (2003)
Min Temperature 28 °F 28 °F 4 °F (2014)
Degree Days  
Heating Degree Days 34    
Moisture  
Dew Point 19 °F    
Average Humidity 64    
Maximum Humidity 96    
Minimum Humidity 35    
Precipitation  
Precipitation 0.00 in - - ()
Sea Level Pressure  
Sea Level Pressure 30.22 in    
Wind  
Wind Speed 7 mph (WSW)    
Max Wind Speed 14 mph    
Max Gust Speed 18 mph    
Visibility 7 miles    
Events Snow    
Averages and records for this station are not official NWS values.
T = Trace of Precipitation, MM = Missing Value Source: NWS Daily Summary

Daily Weather History Graph

Daily Weather History Graph

Search for Another Location

Airport or City:

Trip Planner

Search our weather history database for the weather conditions in past years. The results will help you decide how hot, cold, wet, or windy it might be!

Date:

Astronomy

Nov. 20, 2015 Rise Set
Actual Time 7:02 AM CST 4:36 PM CST
Civil Twilight 6:31 AM CST 5:07 PM CST
Nautical Twilight 5:57 AM CST 5:42 PM CST
Astronomical Twilight 5:23 AM CST 6:16 PM CST
Moon 1:37 PM CST (11/20) 12:31 AM CST (11/20)
Length of Visible Light 10h 35m
Length of Day
9h 33m
Waxing Gibbous, 67% of the Moon is Illuminated
Nov 20
Waxing Gibbous
Nov 25
Full
Dec 3
Last Quarter
Dec 11
New
Dec 18
First Quarter

Hourly Weather History & Observations

Time (CST) Temp. Windchill Dew Point Humidity Pressure Visibility Wind Dir Wind Speed Gust Speed Precip Events Conditions
12:10 AM 32.9 °F 24.7 °F 14.7 °F 47% 30.10 in 10.0 mi WSW 10.4 mph 18.4 mph N/A   Clear
12:30 AM 32.4 °F 24.0 °F 15.4 °F 50% 30.11 in 10.0 mi WSW 10.4 mph - N/A   Clear
12:50 AM 32.2 °F 22.7 °F 15.4 °F 50% 30.11 in 10.0 mi WSW 12.7 mph 17.3 mph N/A   Clear
1:10 AM 32.0 °F 23.6 °F 15.1 °F 50% 30.11 in 10.0 mi WSW 10.4 mph - N/A   Clear
1:30 AM 32.0 °F 23.6 °F 14.7 °F 49% 30.12 in 10.0 mi WSW 10.4 mph 18.4 mph N/A   Clear
1:50 AM 32.0 °F 24.8 °F 14.9 °F 49% 30.13 in 10.0 mi WSW 8.1 mph - N/A   Clear
2:10 AM 31.8 °F 23.9 °F 15.4 °F 51% 30.14 in 10.0 mi WSW 9.2 mph 16.1 mph N/A   Clear
2:30 AM 31.8 °F 22.8 °F 15.1 °F 50% 30.14 in 10.0 mi WSW 11.5 mph - N/A   Clear
2:50 AM 32.0 °F 23.6 °F 14.5 °F 49% 30.14 in 10.0 mi WSW 10.4 mph 16.1 mph N/A   Clear
3:10 AM 31.8 °F 22.3 °F 14.4 °F 49% 30.14 in 10.0 mi WSW 12.7 mph 18.4 mph N/A   Clear
3:30 AM 31.6 °F 21.6 °F 13.5 °F 47% 30.16 in 10.0 mi West 13.8 mph 17.3 mph N/A   Clear
3:50 AM 31.3 °F 23.9 °F 13.1 °F 47% 30.16 in 10.0 mi West 8.1 mph - N/A   Clear
4:10 AM 30.9 °F 25.2 °F 13.1 °F 48% 30.17 in 10.0 mi West 5.8 mph - N/A   Clear
4:30 AM 30.7 °F 23.3 °F 13.1 °F 48% 30.18 in 10.0 mi West 8.1 mph - N/A   Clear
4:50 AM 30.6 °F 21.8 °F 13.1 °F 48% 30.18 in 10.0 mi West 10.4 mph - N/A   Clear
5:10 AM 30.2 °F 21.3 °F 12.4 °F 48% 30.19 in 10.0 mi West 10.4 mph - N/A   Clear
5:30 AM 30.6 °F 23.1 °F 11.3 °F 45% 30.20 in 10.0 mi West 8.1 mph 17.3 mph N/A   Clear
5:50 AM 30.2 °F 22.6 °F 10.9 °F 45% 30.21 in 10.0 mi WSW 8.1 mph - N/A   Clear
6:10 AM 30.0 °F 24.1 °F 10.8 °F 45% 30.21 in 10.0 mi West 5.8 mph - N/A   Clear
6:30 AM 29.3 °F 23.2 °F 11.3 °F 47% 30.21 in 10.0 mi West 5.8 mph - N/A   Clear
6:50 AM 29.3 °F 23.2 °F 11.5 °F 47% 30.22 in 10.0 mi West 5.8 mph - N/A   Clear
7:10 AM 28.6 °F 24.8 °F 12.9 °F 52% 30.21 in 10.0 mi WNW 3.5 mph - N/A   Clear
7:30 AM 28.2 °F - 14.4 °F 56% 30.22 in 10.0 mi Calm Calm - N/A   Clear
7:50 AM 29.1 °F 21.3 °F 13.5 °F 52% 30.24 in 10.0 mi WSW 8.1 mph - N/A   Clear
8:10 AM 30.2 °F 21.3 °F 13.6 °F 50% 30.24 in 10.0 mi West 10.4 mph - N/A   Clear
8:30 AM 30.7 °F 23.3 °F 14.0 °F 50% 30.25 in 10.0 mi West 8.1 mph - N/A   Clear
8:50 AM 31.6 °F 23.7 °F 13.3 °F 47% 30.26 in 10.0 mi West 9.2 mph - N/A   Scattered Clouds
9:10 AM 32.0 °F 24.8 °F 13.3 °F 46% 30.27 in 10.0 mi West 8.1 mph - N/A   Mostly Cloudy
9:30 AM 32.2 °F 25.8 °F 13.8 °F 47% 30.27 in 10.0 mi West 6.9 mph - N/A   Overcast
9:50 AM 32.9 °F 26.7 °F 12.9 °F 44% 30.27 in 10.0 mi WNW 6.9 mph - N/A   Mostly Cloudy
10:10 AM 33.8 °F 29.6 °F 12.6 °F 42% 30.28 in 10.0 mi West 4.6 mph - N/A   Overcast
10:30 AM 34.7 °F 29.6 °F 10.6 °F 37% 30.27 in 10.0 mi West 5.8 mph - N/A   Overcast
10:50 AM 34.7 °F 30.6 °F 10.9 °F 37% 30.26 in 10.0 mi SW 4.6 mph - N/A   Scattered Clouds
11:10 AM 35.2 °F - 9.7 °F 35% 30.25 in 10.0 mi Calm Calm - N/A   Mostly Cloudy
11:30 AM 34.9 °F 32.0 °F 10.2 °F 36% 30.26 in 10.0 mi SW 3.5 mph - N/A   Overcast
11:50 AM 34.9 °F 29.0 °F 11.7 °F 38% 30.25 in 10.0 mi SW 6.9 mph - N/A   Overcast
12:10 PM 35.1 °F 31.0 °F 12.0 °F 39% 30.24 in 10.0 mi SW 4.6 mph - N/A   Overcast
12:30 PM 35.1 °F 31.0 °F 11.1 °F 37% 30.24 in 10.0 mi West 4.6 mph - N/A   Overcast
12:50 PM 35.1 °F 31.0 °F 11.5 °F 38% 30.24 in 10.0 mi WSW 4.6 mph - N/A   Overcast
1:10 PM 34.7 °F 31.8 °F 10.4 °F 37% 30.23 in 10.0 mi WSW 3.5 mph - N/A   Overcast
1:30 PM 35.1 °F 31.0 °F 10.6 °F 36% 30.23 in 10.0 mi SW 4.6 mph - N/A   Overcast
1:50 PM 34.7 °F 31.8 °F 11.7 °F 39% 30.23 in 10.0 mi South 3.5 mph - N/A   Overcast
2:10 PM 33.8 °F 27.0 °F 17.4 °F 51% 30.22 in 10.0 mi South 8.1 mph - N/A   Overcast
2:30 PM 32.4 °F - 21.9 °F 65% 30.22 in 5.0 mi Calm Calm - N/A Snow Light Snow
2:50 PM 31.6 °F 28.3 °F 25.3 °F 78% 30.22 in 2.5 mi South 3.5 mph - N/A Snow Light Snow
3:10 PM 30.9 °F 27.5 °F 26.4 °F 83% 30.22 in 2.5 mi SSW 3.5 mph - N/A Snow Light Snow
3:30 PM 30.2 °F - 27.3 °F 89% 30.23 in 0.8 mi Calm Calm - N/A Snow Light Snow
3:50 PM 30.0 °F - 27.9 °F 92% 30.23 in 0.5 mi Calm Calm - N/A Snow Light Snow
4:10 PM 29.7 °F - 27.5 °F 92% 30.23 in 1.0 mi Calm Calm - N/A Snow Snow
4:30 PM 29.7 °F - 28.0 °F 94% 30.23 in 1.0 mi Calm Calm - N/A Snow Snow
4:50 PM 29.7 °F - 28.2 °F 94% 30.23 in 1.5 mi Calm Calm - N/A Snow Light Snow
5:10 PM 29.8 °F - 28.4 °F 94% 30.23 in 1.0 mi Calm Calm - N/A Snow Light Snow
5:30 PM 29.8 °F - 28.2 °F 94% 30.25 in 1.0 mi Calm Calm - N/A Snow Snow
5:50 PM 29.7 °F - 28.2 °F 94% 30.25 in 1.0 mi Calm Calm - N/A Snow Snow
6:10 PM 29.7 °F - 28.2 °F 94% 30.24 in 1.2 mi Calm Calm - N/A Snow Snow
6:30 PM 29.7 °F - 28.2 °F 94% 30.25 in 1.2 mi Calm Calm - N/A Snow Snow
6:50 PM 29.5 °F - 28.4 °F 96% 30.25 in 1.0 mi Calm Calm - N/A Snow Snow
7:10 PM 30.0 °F - 28.6 °F 94% 30.26 in 1.2 mi Calm Calm - N/A Snow Snow
7:30 PM 30.0 °F - 28.8 °F 95% 30.26 in 1.2 mi Calm Calm - N/A Snow Snow
7:50 PM 30.0 °F - 28.8 °F 95% 30.26 in 1.0 mi Calm Calm - N/A Snow Snow
8:10 PM 30.0 °F - 28.8 °F 95% 30.26 in 1.5 mi Calm Calm - N/A Snow Light Snow
8:30 PM 30.0 °F - 28.6 °F 94% 30.26 in 1.5 mi Calm Calm - N/A Snow Light Snow
8:50 PM 30.0 °F - 28.8 °F 95% 30.26 in 1.8 mi Calm Calm - N/A Snow Light Snow
9:10 PM 30.2 °F - 28.8 °F 94% 30.26 in 1.5 mi Calm Calm - N/A Snow Light Snow
9:30 PM 30.2 °F - 28.9 °F 95% 30.26 in 1.5 mi Calm Calm - N/A Snow Light Snow
9:50 PM 30.2 °F - 28.8 °F 94% 30.25 in 1.5 mi Calm Calm - N/A Snow Light Snow
10:10 PM 30.2 °F - 28.4 °F 93% 30.25 in 1.8 mi Calm Calm - N/A Snow Light Snow
10:30 PM 30.2 °F - 28.2 °F 92% 30.26 in 1.5 mi Calm Calm - N/A Snow Light Snow
10:50 PM 30.2 °F - 28.4 °F 93% 30.25 in 1.8 mi Calm Calm - N/A Snow Light Snow
11:10 PM 30.2 °F - 28.2 °F 92% 30.24 in 2.5 mi Calm Calm - N/A Snow Light Snow
11:30 PM 30.2 °F - 28.4 °F 93% 30.23 in 2.5 mi Calm Calm - N/A Snow Light Snow
11:50 PM 30.2 °F - 28.2 °F 92% 30.25 in 2.5 mi Calm Calm - N/A Snow Light Snow